This is the latest recevied weather packets stored in our database for station/object KO4T-4. If no packets are shown the sender has not sent any weather packets the latest 10 day(s).
| Time | Temp. | Humidity | Pressure | Rain* | Wind** | Luminosity | Snow |
|---|---|---|---|---|---|---|---|
| 1777914002 | 23.33° C | 35% | 1015.1 hPa | 0 mm | - | - | - |
| 1777913701 | 23.33° C | 37% | 1015.3 hPa | 0 mm | - | - | - |
| 1777913402 | 23.33° C | 36% | 1015.3 hPa | 0 mm | - | - | - |
| 1777913101 | 22.78° C | 36% | 1015.4 hPa | 0 mm | - | - | - |
| 1777912802 | 23.33° C | 37% | 1015.4 hPa | 0 mm | - | - | - |
| 1777912501 | 22.22° C | 41% | 1015.6 hPa | 0 mm | - | - | - |
| 1777912202 | 22.22° C | 37% | 1015.7 hPa | 0 mm | - | - | - |
| 1777911901 | 22.78° C | 37% | 1015.7 hPa | 0 mm | - | - | - |
| 1777911602 | 22.78° C | 37% | 1015.7 hPa | 0 mm | - | - | - |
| 1777911302 | 22.78° C | 40% | 1015.7 hPa | 0 mm | - | - | - |
| 1777911003 | 22.22° C | 39% | 1015.8 hPa | 0 mm | - | - | - |
| 1777910702 | 21.67° C | 40% | 1015.9 hPa | 0 mm | - | - | - |
| 1777910402 | 21.67° C | 38% | 1016 hPa | 0 mm | - | - | - |
| 1777910101 | 21.67° C | 42% | 1016.1 hPa | 0 mm | - | - | - |
| 1777909802 | 21.11° C | 41% | 1016.1 hPa | 0 mm | - | - | - |
| 1777909502 | 21.11° C | 41% | 1016.2 hPa | 0 mm | - | - | - |
| 1777909202 | 20.56° C | 39% | 1016.3 hPa | 0 mm | - | - | - |
| 1777908901 | 20.56° C | 41% | 1016.5 hPa | 0 mm | - | - | - |
| 1777908602 | 20.56° C | 39% | 1016.6 hPa | 0 mm | - | - | - |
| 1777908302 | 20.56° C | 39% | 1016.7 hPa | 0 mm | - | - | - |
| 1777908002 | 20.56° C | 43% | 1016.8 hPa | 0 mm | - | - | - |
| 1777907701 | 20° C | 41% | 1016.9 hPa | 0 mm | - | - | - |
| 1777907402 | 19.44° C | 43% | 1016.8 hPa | 0 mm | - | - | - |
| 1777907101 | 19.44° C | 46% | 1017 hPa | 0 mm | - | - | - |
| 1777906802 | 19.44° C | 48% | 1017 hPa | 0 mm | - | - | - |
* Rain latest hour (hover to see other rain measurements)
** Current wind speed in m/s (hover to see current wind gust speed)